When you browse on this site, cookies collect data to enhance your experience and personalize the content and advertising you see.
Visit our Privacy Policy to learn more. By continuing to use the site, you agree to this use of cookies and data.
  • In Switzerland
  • List of Countries
  • For 7 days
  • Water Temperature
  • Weather Map
  • Weather Widgets
  • user-avatar
    Login

    Hourly Weather Rouen

    Today, 27 February, Thursday

    Time Temperature Precipitation Wind Pressure Humidity
    00:00 +1°C° 0 mm 4 mps 750 mmHg 87%
    01:00 +1°C° 0 mm 4 mps 749 mmHg 87%
    02:00 +1°C° 0 mm 4 mps 747 mmHg 86%
    03:00 +2°C° 0 mm 5 mps 746 mmHg 85%
    04:00 +2°C° 1.6 mm 6 mps 744 mmHg 89%
    05:00 +2°C° 1.6 mm 7 mps 742 mmHg 92%
    06:00 0°C° 0 mm 8 mps 740 mmHg 93%
    07:00 +2°C° 2.3 mm 7 mps 739 mmHg 94%
    08:00 +4°C° 2.3 mm 7 mps 737 mmHg 94%
    09:00 +5°C° 2.3 mm 7 mps 736 mmHg 95%
    10:00 +5°C° 0.3 mm 8 mps 737 mmHg 91%
    11:00 +5°C° 0.3 mm 10 mps 738 mmHg 88%
    12:00 +3°C° 0.3 mm 12 mps 739 mmHg 85%
    13:00 +3°C° 0 mm 11 mps 741 mmHg 83%
    14:00 +2°C° 0 mm 10 mps 744 mmHg 81%
    15:00 +2°C° 0 mm 10 mps 746 mmHg 79%
    16:00 +2°C° 0 mm 8 mps 748 mmHg 79%
    17:00 +2°C° 0 mm 7 mps 749 mmHg 79%
    18:00 +2°C° 0 mm 5 mps 750 mmHg 78%
    19:00 +3°C° 0 mm 4 mps 751 mmHg 79%
    20:00 +1°C° 0 mm 4 mps 752 mmHg 81%
    21:00 +1°C° 0 mm 3 mps 753 mmHg 82%
    22:00 +1°C° 0 mm 3 mps 754 mmHg 83%
    23:00 +2°C° 0 mm 2 mps 755 mmHg 84%

    Tomorrow, 28 February, Friday

    Time Temperature Precipitation Wind Pressure Humidity
    00:00 +1°C° 0 mm 2 mps 756 mmHg 85%
    01:00 +1°C° 0 mm 2 mps 756 mmHg 86%
    02:00 +1°C° 0 mm 2 mps 756 mmHg 86%
    03:00 +1°C° 0 mm 2 mps 755 mmHg 87%
    04:00 +1°C° 0 mm 2 mps 755 mmHg 87%
    05:00 +1°C° 0 mm 3 mps 755 mmHg 86%
    06:00 +1°C° 0 mm 3 mps 755 mmHg 85%
    07:00 0°C° 0 mm 4 mps 755 mmHg 85%
    08:00 +1°C° 0 mm 6 mps 754 mmHg 84%
    09:00 +2°C° 0 mm 7 mps 754 mmHg 83%
    10:00 +2°C° 0.5 mm 7 mps 753 mmHg 86%
    11:00 +1°C° 0.5 mm 8 mps 752 mmHg 88%
    12:00 +1°C° 0.5 mm 9 mps 752 mmHg 90%
    13:00 +2°C° 0.2 mm 8 mps 751 mmHg 90%
    14:00 +4°C° 0.2 mm 8 mps 750 mmHg 91%
    15:00 +5°C° 0.2 mm 7 mps 748 mmHg 91%
    16:00 +6°C° 0.1 mm 7 mps 748 mmHg 92%
    17:00 +7°C° 0.1 mm 6 mps 747 mmHg 93%
    18:00 +8°C° 0.1 mm 6 mps 747 mmHg 94%
    19:00 +9°C° 0 mm 6 mps 746 mmHg 94%
    20:00 +9°C° 0 mm 6 mps 746 mmHg 94%
    21:00 +10°C° 0 mm 7 mps 745 mmHg 93%
    22:00 +9°C° 0 mm 7 mps 745 mmHg 91%
    23:00 +9°C° 0 mm 7 mps 744 mmHg 89%

    Day after tomorrow, 29 February, Saturday

    Time Temperature Precipitation Wind Pressure Humidity
    00:00 +9°C° 0 mm 8 mps 744 mmHg 87%
    01:00 +8°C° 0 mm 7 mps 743 mmHg 88%
    02:00 +8°C° 0 mm 7 mps 741 mmHg 89%
    03:00 +7°C° 0 mm 6 mps 740 mmHg 90%
    04:00 +6°C° 0 mm 7 mps 739 mmHg 89%
    05:00 +6°C° 0 mm 8 mps 738 mmHg 88%
    06:00 +6°C° 0 mm 8 mps 736 mmHg 87%
    07:00 +7°C° 0.1 mm 10 mps 735 mmHg 85%
    08:00 +7°C° 0.1 mm 11 mps 735 mmHg 83%
    09:00 +7°C° 0.1 mm 13 mps 734 mmHg 81%
    10:00 +5°C° 0.8 mm 12 mps 735 mmHg 81%
    11:00 +4°C° 0.8 mm 11 mps 736 mmHg 82%
    12:00 +3°C° 0.8 mm 11 mps 738 mmHg 82%
    13:00 +5°C° 0.2 mm 10 mps 738 mmHg 75%
    14:00 +5°C° 0.2 mm 10 mps 739 mmHg 68%
    15:00 +5°C° 0.2 mm 10 mps 739 mmHg 62%
    16:00 +3°C° 0.1 mm 9 mps 739 mmHg 68%
    17:00 +2°C° 0.1 mm 8 mps 740 mmHg 75%
    18:00 +1°C° 0.1 mm 8 mps 740 mmHg 81%
    19:00 +1°C° 0.1 mm 8 mps 740 mmHg 80%
    20:00 +1°C° 0.1 mm 8 mps 741 mmHg 78%
    21:00 +2°C° 0.1 mm 7 mps 741 mmHg 77%
    22:00 +1°C° 0 mm 8 mps 741 mmHg 77%
    23:00 +1°C° 0 mm 8 mps 741 mmHg 78%

    1 March, Sunday

    Time Temperature Precipitation Wind Pressure Humidity
    00:00 +1°C° 0 mm 8 mps 741 mmHg 78%
    01:00 +1°C° 0 mm 8 mps 741 mmHg 80%
    02:00 +1°C° 0 mm 8 mps 740 mmHg 81%
    03:00 +2°C° 0 mm 7 mps 740 mmHg 83%
    04:00 +2°C° 0 mm 7 mps 740 mmHg 84%
    05:00 +2°C° 0 mm 7 mps 739 mmHg 85%
    06:00 +2°C° 0 mm 7 mps 739 mmHg 86%
    07:00 +3°C° 0 mm 7 mps 739 mmHg 84%
    08:00 +4°C° 0 mm 7 mps 738 mmHg 82%
    09:00 +4°C° 0 mm 7 mps 738 mmHg 80%
    10:00 +4°C° 0.9 mm 6 mps 737 mmHg 84%
    11:00 +5°C° 0.9 mm 5 mps 737 mmHg 88%
    12:00 +5°C° 0.9 mm 4 mps 736 mmHg 91%
    13:00 +5°C° 3.4 mm 4 mps 736 mmHg 91%
    14:00 +3°C° 3.4 mm 5 mps 736 mmHg 90%
    15:00 +3°C° 3.4 mm 5 mps 735 mmHg 90%
    16:00 +3°C° 0.1 mm 5 mps 736 mmHg 87%
    17:00 +2°C° 0.1 mm 5 mps 737 mmHg 84%
    18:00 +2°C° 0.1 mm 5 mps 738 mmHg 81%
    19:00 +2°C° 0 mm 5 mps 738 mmHg 82%
    20:00 +1°C° 0 mm 5 mps 739 mmHg 84%
    21:00 +1°C° 0 mm 5 mps 739 mmHg 86%
    22:00 +1°C° 0 mm 5 mps 738 mmHg 87%
    23:00 +1°C° 0 mm 5 mps 738 mmHg 88%

    2 March, Monday

    Time Temperature Precipitation Wind Pressure Humidity
    00:00 +1°C° 0 mm 5 mps 737 mmHg 89%
    01:00 +1°C° 0.7 mm 5 mps 737 mmHg 91%
    02:00 +2°C° 0.7 mm 5 mps 736 mmHg 93%
    03:00 +2°C° 0.7 mm 6 mps 735 mmHg 94%
    04:00 +2°C° 0.2 mm 5 mps 735 mmHg 94%
    05:00 +2°C° 0.2 mm 5 mps 735 mmHg 94%
    06:00 +3°C° 0.2 mm 4 mps 735 mmHg 93%
    07:00 +2°C° 0.3 mm 5 mps 736 mmHg 90%
    08:00 +2°C° 0.3 mm 6 mps 736 mmHg 87%
    09:00 +2°C° 0.3 mm 7 mps 737 mmHg 83%
    10:00 +4°C° 0.1 mm 7 mps 738 mmHg 78%
    11:00 +5°C° 0.1 mm 6 mps 739 mmHg 72%
    12:00 +7°C° 0.1 mm 6 mps 740 mmHg 66%
    13:00 +7°C° 0.2 mm 6 mps 740 mmHg 66%
    14:00 +7°C° 0.2 mm 6 mps 741 mmHg 67%
    15:00 +7°C° 0.2 mm 6 mps 741 mmHg 67%
    16:00 +6°C° 0.1 mm 5 mps 741 mmHg 73%
    17:00 +4°C° 0.1 mm 4 mps 742 mmHg 78%
    18:00 +3°C° 0.1 mm 3 mps 742 mmHg 83%
    19:00 +3°C° 0 mm 3 mps 743 mmHg 84%
    20:00 +1°C° 0 mm 4 mps 744 mmHg 85%
    21:00 +1°C° 0 mm 4 mps 745 mmHg 86%
    22:00 +1°C° 0 mm 4 mps 745 mmHg 87%
    23:00 0°C° 0 mm 4 mps 745 mmHg 87%

    3 March, Tuesday

    Time Temperature Precipitation Wind Pressure Humidity
    00:00 0°C° 0 mm 4 mps 746 mmHg 88%
    01:00 +1°C° 0 mm 3 mps 746 mmHg 89%
    02:00 0°C° 0 mm 3 mps 746 mmHg 90%
    03:00 0°C° 0 mm 3 mps 746 mmHg 91%
    04:00 0°C° 0 mm 3 mps 745 mmHg 91%
    05:00 0°C° 0 mm 3 mps 745 mmHg 91%
    06:00 0°C° 0 mm 3 mps 745 mmHg 92%
    07:00 +1°C° 0 mm 3 mps 745 mmHg 88%
    08:00 +1°C° 0 mm 4 mps 744 mmHg 83%
    09:00 +3°C° 0 mm 4 mps 744 mmHg 79%
    10:00 +4°C° 0.1 mm 4 mps 744 mmHg 79%
    11:00 +3°C° 0.1 mm 5 mps 743 mmHg 78%
    12:00 +5°C° 0.1 mm 5 mps 743 mmHg 77%
    13:00 +3°C° 0.5 mm 5 mps 742 mmHg 82%
    14:00 +3°C° 0.5 mm 5 mps 741 mmHg 88%
    15:00 +2°C° 0.5 mm 5 mps 740 mmHg 93%
    16:00 +2°C° 1.7 mm 5 mps 739 mmHg 94%
    17:00 +2°C° 1.7 mm 6 mps 739 mmHg 95%
    18:00 +2°C° 1.7 mm 6 mps 738 mmHg 96%
    19:00 +2°C° 0.4 mm 5 mps 738 mmHg 96%
    20:00 +3°C° 0.4 mm 3 mps 738 mmHg 96%
    21:00 +4°C° 0.4 mm 2 mps 738 mmHg 96%
    22:00 +4°C° 0 mm 2 mps 738 mmHg 96%
    23:00 +4°C° 0 mm 2 mps 738 mmHg 97%
    Show more